カタログに戻る

CZ-6A DEB

運用中PO
NORAD 54262·DEBRIS·🇨🇳 China

打ち上げ Nov 11, 2022 から Taiyuan Satellite Launch Center

Loading…

次のパス (今後24時間)

TLE

最新Source: Space-Track

元期: Sep 14, 2026, 14:01 UTC

1 54262U 22151D   26257.58407032  .00000736  00000-0  77105-3 0  9990
2 54262  99.0550 176.8957 0275497  37.8352 324.1810 13.62654158190734

AllMySatでCZ-6A DEBをリアルタイム追跡

Download on the App Store